EW8589 Weather Reports


time (UTC)temp
C
wind
direction
speed
KPH
gust
KPH
rain 1hr
cm
rain 24hr
cm
rain mn
cm
humidity
%
barometer
mb
20260504151010 17 244 11.3 30.6 0.00 0.00 0.00 38 1010.0
20260504150511 17 317 6.4 27.4 0.00 0.00 0.00 38 1010.1
20260504141007 16 277 6.4 20.9 0.00 0.00 0.00 39 1010.6
20260504140507 16 232 3.2 27.4 0.00 0.00 0.00 43 1010.5
20260504130507 13 277 4.8 24.1 0.00 0.00 0.00 46 1011.1
20260504110503 8 291 0.0 11.3 0.00 0.00 0.00 58 1011.5
20260504100508 5 267 0.0 6.4 0.00 0.00 0.00 67 1011.0
20260504082006 5 68 0.0 4.8 0.00 0.00 0.00 66 1010.7
20260504081518 5 262 0.0 3.2 0.00 0.00 0.00 69 1010.7
20260504081008 5 225 0.0 3.2 0.00 0.00 0.00 70 1010.8
20260504080507 5 47 0.0 3.2 0.00 0.00 0.00 71 1010.8
20260504050511 1 288 0.0 3.2 0.00 0.00 0.00 78 1011.2
20260504050016 1 288 0.0 0.0 0.00 0.00 0.00 76 1011.2
20260504045506 1 288 0.0 0.0 0.00 0.00 0.00 75 1011.2
20260504045006 1 288 0.0 0.0 0.00 0.00 0.00 77 1011.2
20260504044521 1 288 0.0 0.0 0.00 0.00 0.00 76 1011.3
20260504044012 1 288 0.0 0.0 0.00 0.00 0.00 76 1011.3
20260504043508 1 288 0.0 0.0 0.00 0.00 0.00 77 1011.3
20260504043026 1 288 0.0 0.0 0.00 0.00 0.00 78 1011.3
20260504042511 1 288 0.0 3.2 0.00 0.00 0.00 78 1011.3
20260504042010 1 288 0.0 3.2 0.00 0.00 0.00 77 1011.2
20260504041526 1 288 0.0 3.2 0.00 0.00 0.00 78 1011.2
20260504041010 1 310 0.0 1.6 0.00 0.00 0.00 77 1011.1
20260504040507 1 310 0.0 3.2 0.00 0.00 0.00 77 1011.2
20260504040010 1 310 0.0 3.2 0.00 0.00 0.00 75 1011.1
20260504035508 1 310 0.0 0.0 0.00 0.00 0.00 76 1011.1
20260504035010 1 310 0.0 3.2 0.00 0.00 0.00 75 1011.1
20260504034516 1 310 0.0 3.2 0.00 0.00 0.00 76 1011.1
20260504034010 2 310 0.0 3.2 0.00 0.00 0.00 75 1011.1
20260504033506 2 310 0.0 3.2 0.00 0.00 0.00 74 1011.1
20260504033023 2 310 0.0 0.0 0.00 0.00 0.00 72 1011.1
20260504032507 2 310 0.0 0.0 0.00 0.00 0.00 73 1011.0
20260504032009 2 310 0.0 0.0 0.00 0.00 0.00 73 1011.0
20260504031528 2 310 0.0 0.0 0.00 0.00 0.00 73 1010.9
20260504031012 2 310 0.0 0.0 0.00 0.00 0.00 72 1010.8
20260504030508 2 310 0.0 0.0 0.00 0.00 0.00 72 1010.7
20260504030026 2 310 0.0 0.0 0.00 0.00 0.00 71 1010.7
20260504025509 2 310 0.0 0.0 0.00 0.00 0.00 71 1010.8
20260504025010 2 310 0.0 0.0 0.00 0.00 0.00 72 1010.7
20260504024516 2 310 0.0 0.0 0.00 0.00 0.00 71 1010.8
20260504024006 2 310 0.0 0.0 0.00 0.00 0.00 69 1010.8
20260504023506 2 310 0.0 0.0 0.00 0.00 0.00 68 1010.8
20260504023003 3 310 0.0 0.0 0.00 0.00 0.00 68 1010.8
20260504022503 3 310 0.0 0.0 0.00 0.00 0.00 69 1010.7
20260504022004 3 310 0.0 0.0 0.00 0.00 0.00 69 1010.8
20260504021504 3 310 0.0 0.0 0.00 0.00 0.00 69 1010.7
20260504021006 3 310 0.0 3.2 0.00 0.00 0.00 69 1010.7
20260504020503 3 310 0.0 3.2 0.00 0.00 0.00 68 1010.6
20260504020008 3 310 0.0 1.6 0.00 0.00 0.00 67 1010.7
20260504015505 3 310 0.0 1.6 0.00 0.00 0.00 66 1010.7
20260504015007 3 310 0.0 0.0 0.00 0.00 0.00 66 1010.6
20260504014510 3 310 0.0 0.0 0.00 0.00 0.00 65 1010.5
20260504014006 3 310 0.0 0.0 0.00 0.00 0.00 64 1010.5
20260504013507 4 310 0.0 0.0 0.00 0.00 0.00 62 1010.4
20260504013017 4 310 0.0 0.0 0.00 0.00 0.00 61 1010.4
20260504012510 4 310 0.0 0.0 0.00 0.00 0.00 59 1010.3
20260504012008 5 310 0.0 0.0 0.00 0.00 0.00 57 1010.4
20260504011503 5 310 0.0 0.0 0.00 0.00 0.00 57 1010.4
20260504011004 5 310 0.0 0.0 0.00 0.00 0.00 57 1010.3
20260504010510 5 310 0.0 0.0 0.00 0.00 0.00 56 1010.3
20260504010005 6 310 0.0 0.0 0.00 0.00 0.00 54 1010.2
20260504005503 6 310 0.0 0.0 0.00 0.00 0.00 53 1010.2
20260504005006 6 310 0.0 3.2 0.00 0.00 0.00 52 1010.0
20260504004509 6 310 0.0 3.2 0.00 0.00 0.00 51 1010.0
20260504004004 6 310 0.0 3.2 0.00 0.00 0.00 49 1009.8
20260504003508 6 310 0.0 3.2 0.00 0.00 0.00 48 1009.8
20260504003014 7 310 0.0 0.0 0.00 0.00 0.00 47 1009.7
20260504002509 7 310 0.0 0.0 0.00 0.00 0.00 47 1009.5
20260504002006 7 310 0.0 0.0 0.00 0.00 0.00 45 1009.5
20260504001521 8 310 0.0 3.2 0.00 0.00 0.00 43 1009.4
20260504001007 8 310 0.0 3.2 0.00 0.00 0.00 40 1009.3
20260504000507 9 306 0.0 3.2 0.00 0.00 0.00 40 1009.3
20260504000010 9 304 0.0 3.2 0.00 0.00 0.00 39 1009.1
20260503235505 9 308 0.0 6.4 0.00 0.00 0.00 39 1009.1
20260503235003 10 236 1.6 6.4 0.00 0.00 0.00 36 1009.1
20260503234505 10 302 1.6 4.8 0.00 0.00 0.00 37 1009.0
20260503234005 10 289 1.6 4.8 0.00 0.00 0.00 36 1008.9
20260503233504 10 279 1.6 9.7 0.00 0.00 0.00 36 1008.8
20260503233011 10 284 1.6 11.3 0.00 0.00 0.00 37 1008.9
20260503232510 10 263 3.2 11.3 0.00 0.00 0.00 36 1008.8
20260503232007 11 5 4.8 14.5 0.00 0.00 0.00 35 1008.8
20260503231516 11 236 6.4 14.5 0.00 0.00 0.00 34 1008.8
20260503231006 11 348 1.6 11.3 0.00 0.00 0.00 35 1008.7
20260503230510 11 286 6.4 16.1 0.00 0.00 0.00 34 1008.7
20260503230022 11 295 3.2 16.1 0.00 0.00 0.00 35 1008.7
20260503225515 11 309 4.8 14.5 0.00 0.00 0.00 36 1008.8
20260503225003 11 275 4.8 12.9 0.00 0.00 0.00 34 1008.7
20260503224506 11 266 4.8 16.1 0.00 0.00 0.00 36 1008.7
20260503224005 11 281 4.8 20.9 0.00 0.00 0.00 34 1008.7
20260503223503 11 146 12.9 20.9 0.00 0.00 0.00 35 1008.8
20260503223006 11 143 1.6 14.5 0.00 0.00 0.00 37 1008.7
20260503222505 11 273 3.2 6.4 0.00 0.00 0.00 39 1008.7
20260503222005 11 268 1.6 12.9 0.00 0.00 0.00 38 1008.7
20260503221513 11 295 1.6 19.3 0.00 0.00 0.00 37 1008.6
20260503221009 11 272 8.0 22.5 0.00 0.00 0.00 36 1008.7
20260503220508 11 263 8.0 22.5 0.00 0.00 0.00 37 1008.8
20260503220021 12 273 8.0 22.5 0.00 0.00 0.00 35 1008.8
20260503215507 11 269 4.8 20.9 0.00 0.00 0.00 36 1008.7
20260503215012 11 272 8.0 20.9 0.00 0.00 0.00 38 1008.7
20260503214531 11 341 4.8 19.3 0.00 0.00 0.00 35 1008.7
20260503214007 11 248 4.8 17.7 0.00 0.00 0.00 39 1008.7
20260503213507 11 265 6.4 29.0 0.00 0.00 0.00 36 1008.6
20260503213008 11 281 12.9 29.0 0.00 0.00 0.00 36 1008.7
20260503212504 11 261 11.3 24.1 0.00 0.00 0.00 35 1008.6
20260503212005 11 307 9.7 20.9 0.00 0.00 0.00 38 1008.7
20260503211513 11 160 4.8 20.9 0.00 0.00 0.00 39 1008.5
20260503211004 11 304 6.4 27.4 0.00 0.00 0.00 39 1008.7
20260503210505 10 261 8.0 27.4 0.00 0.00 0.00 38 1008.7
20260503210037 11 291 8.0 24.1 0.00 0.00 0.00 39 1008.6
20260503205511 10 277 9.7 29.0 0.00 0.00 0.00 38 1008.6
20260503205007 11 352 8.0 29.0 0.00 0.00 0.00 39 1008.5
20260503204524 11 348 8.0 27.4 0.00 0.00 0.00 38 1008.5
20260503204015 11 304 6.4 30.6 0.00 0.00 0.00 38 1008.4
20260503203507 11 276 16.1 30.6 0.00 0.00 0.00 40 1008.6
20260503203026 11 265 11.3 22.5 0.00 0.00 0.00 38 1008.5
20260503202511 11 261 9.7 22.5 0.00 0.00 0.00 40 1008.5
20260503202004 11 265 11.3 32.2 0.00 0.00 0.00 39 1008.5
20260503201508 11 331 12.9 32.2 0.00 0.00 0.00 42 1008.5
20260503201004 10 228 11.3 29.0 0.00 0.00 0.00 40 1008.6
20260503200505 10 268 11.3 29.0 0.00 0.00 0.00 40 1008.6
20260503200015 10 291 9.7 29.0 0.00 0.00 0.00 40 1008.5
20260503195507 10 289 9.7 29.0 0.00 0.00 0.00 39 1008.7
20260503195007 10 235 9.7 24.1 0.00 0.00 0.00 39 1008.6
20260503194519 10 251 9.7 25.7 0.00 0.00 0.00 41 1008.5
20260503194007 11 314 9.7 25.7 0.00 0.00 0.00 38 1008.6
20260503193506 11 263 12.9 37.0 0.00 0.00 0.00 39 1008.5
20260503193023 11 289 9.7 37.0 0.00 0.00 0.00 39 1008.4
20260503192510 10 305 11.3 30.6 0.00 0.00 0.00 41 1008.6
20260503192010 10 281 14.5 29.0 0.00 0.00 0.00 39 1008.5
20260503191524 10 264 12.9 29.0 0.00 0.00 0.00 39 1008.8
20260503191003 10 275 9.7 24.1 0.00 0.00 0.00 41 1008.8
20260503190506 10 319 6.4 22.5 0.00 0.00 0.00 43 1008.6
20260503190012 10 285 9.7 30.6 0.00 0.00 0.00 40 1008.5
20260503185506 10 352 9.7 30.6 0.00 0.00 0.00 40 1008.6
20260503185011 10 267 12.9 30.6 0.00 0.00 0.00 40 1008.7
20260503184520 10 299 8.0 29.0 0.00 0.00 0.00 40 1008.6
20260503184011 10 304 11.3 24.1 0.00 0.00 0.00 40 1008.7
20260503183508 10 61 6.4 22.5 0.00 0.00 0.00 40 1008.6
20260503183024 10 324 6.4 25.7 0.00 0.00 0.00 41 1008.6
20260503182510 10 351 6.4 25.7 0.00 0.00 0.00 40 1008.6
20260503182012 11 234 9.7 24.1 0.00 0.00 0.00 42 1008.5
20260503181524 10 352 8.0 24.1 0.00 0.00 0.00 40 1008.5
20260503181009 10 283 11.3 27.4 0.00 0.00 0.00 41 1008.7
20260503180510 10 277 16.1 27.4 0.00 0.00 0.00 39 1008.6
20260503180028 10 301 3.2 27.4 0.00 0.03 0.00 39 1008.5
20260503175506 10 249 12.9 30.6 0.00 0.03 0.00 37 1008.6
20260503175008 10 288 9.7 30.6 0.00 0.03 0.00 39 1008.6
20260503174512 10 229 12.9 30.6 0.00 0.03 0.00 39 1008.5
20260503174010 10 315 9.7 24.1 0.00 0.03 0.00 41 1008.6
20260503173506 10 350 4.8 19.3 0.00 0.03 0.00 42 1008.5
20260503173018 10 252 8.0 25.7 0.00 0.03 0.00 44 1008.7
20260503172509 10 350 8.0 30.6 0.00 0.03 0.00 45 1008.9
20260503172013 8 250 11.3 30.6 0.00 0.03 0.00 44 1009.0
20260503171524 8 275 11.3 22.5 0.00 0.03 0.00 44 1009.2
20260503171009 8 266 8.0 24.1 0.00 0.03 0.00 46 1009.0
20260503170513 8 267 12.9 24.1 0.00 0.03 0.00 45 1008.8